FW9372 Weather Reports


Display with metric or nautical units.
time (UTC)temp
F
wind
direction
speed
MPH
gust
MPH
rain 1hr
in
rain 24hr
in
rain mn
in
humidity
%
barometer
mb
20260505181559 64 0 0.0 1.0 0.02 0.02 0.02 86 1007.0
20260505174558 65 0 0.0 0.0 0.01 0.01 0.01 84 1007.1
20260505173056 65 0 0.0 0.0 0.00 0.00 0.00 86 1007.1
20260505171559 64 0 0.0 0.0 0.00 0.00 0.00 85 1007.7
20260505170056 64 0 0.0 1.0 0.00 0.00 0.00 83 1007.4
20260505164623 65 0 0.0 7.0 0.00 0.00 0.00 78 1007.7
20260505163059 65 205 0.0 7.0 0.00 0.00 0.00 77 1007.7
20260505161559 65 0 0.0 0.0 0.00 0.00 0.00 76 1007.6
20260505160109 65 233 0.0 5.0 0.00 0.00 0.00 76 1007.5
20260505153100 65 0 0.0 3.0 0.00 0.00 0.00 75 1007.6
20260505151611 65 0 0.0 7.0 0.00 0.00 0.00 74 1007.4
20260505140112 63 0 0.0 0.0 0.00 0.00 0.00 77 1007.4
20260505130103 62 0 0.0 0.0 0.00 0.00 0.00 77 1007.3
20260505124604 61 0 0.0 0.0 0.00 0.00 0.00 77 1007.5
20260505123100 61 0 0.0 1.0 0.00 0.00 0.00 77 1007.5
20260505121558 61 0 0.0 0.0 0.00 0.00 0.00 79 1007.5
20260505120110 60 0 0.0 1.0 0.00 0.00 0.00 80 1007.5
20260505114556 60 0 0.0 0.0 0.00 0.01 0.00 82 1007.5
20260505113058 60 0 0.0 0.0 0.00 0.01 0.00 81 1007.5
20260505111557 60 0 0.0 0.0 0.00 0.01 0.00 79 1007.0
20260505110106 60 0 0.0 0.0 0.00 0.01 0.00 79 1007.1
20260505101610 62 0 0.0 0.0 0.00 0.01 0.00 73 1007.5
20260505100107 61 0 0.0 0.0 0.00 0.01 0.00 75 1007.4
20260505094610 63 0 0.0 0.0 0.00 0.01 0.00 71 1006.6
20260505093109 63 0 0.0 0.0 0.00 0.01 0.00 69 1006.4
20260505091609 63 0 0.0 0.0 0.00 0.01 0.00 69 1006.6
20260505090101 64 0 0.0 0.0 0.00 0.01 0.00 68 1006.5
20260505084559 64 0 0.0 1.0 0.00 0.01 0.00 66 1006.5
20260505083100 65 0 0.0 5.0 0.00 0.01 0.00 65 1006.3
20260505081605 66 0 0.0 3.0 0.00 0.01 0.00 64 1006.1
20260505080107 66 0 0.0 10.0 0.00 0.01 0.00 63 1005.9
20260505074558 66 0 0.0 5.0 0.00 0.01 0.00 62 1006.1
20260505073103 67 0 0.0 7.0 0.00 0.01 0.00 62 1006.2
20260505071556 66 254 0.0 5.0 0.00 0.01 0.00 62 1005.9
20260505070057 67 0 0.0 7.0 0.00 0.01 0.00 62 1005.8
20260505064555 67 0 2.0 12.0 0.00 0.01 0.00 61 1005.7
20260505063113 67 0 1.0 10.0 0.00 0.01 0.00 61 1005.6
20260505061557 67 214 0.0 9.0 0.00 0.01 0.00 60 1005.8
20260505060059 67 0 0.0 4.0 0.00 0.01 0.00 61 1005.5
20260505054611 67 0 0.0 4.0 0.00 0.09 0.00 60 1005.5
20260505053100 67 0 0.0 8.0 0.00 0.09 0.00 60 1005.4
20260505051555 67 0 0.0 4.0 0.00 0.09 0.00 61 1005.5
20260505041606 69 0 0.0 0.0 0.00 0.12 0.09 59 1005.4
20260505040100 69 0 0.0 1.0 0.00 0.12 0.09 58 1005.6
20260505034559 69 0 0.0 2.0 0.00 0.12 0.09 58 1005.8
20260505033058 68 0 0.0 0.0 0.00 0.12 0.09 58 1005.9
20260505031605 68 0 0.0 0.0 0.00 0.12 0.09 59 1006.0
20260505030113 69 0 0.0 0.0 0.00 0.12 0.09 56 1005.8
20260505024605 70 0 0.0 0.0 0.00 0.12 0.09 55 1005.5
20260505023059 71 0 0.0 7.0 0.00 0.12 0.09 53 1005.3
20260505021600 71 0 0.0 1.0 0.00 0.12 0.09 54 1004.9
20260505020054 71 0 0.0 0.0 0.00 0.12 0.09 57 1004.7
20260505014609 71 0 0.0 0.0 0.00 0.12 0.09 54 1004.5
20260505013055 72 0 0.0 0.0 0.00 0.12 0.09 53 1004.4
20260505011606 73 0 0.0 4.0 0.00 0.12 0.09 51 1004.2
20260505010057 73 242 1.0 8.0 0.00 0.12 0.09 50 1003.8
20260505004559 73 0 0.0 7.0 0.00 0.12 0.09 50 1003.5
20260505003056 74 219 0.0 4.0 0.00 0.12 0.09 49 1003.6
20260505001554 74 0 0.0 12.0 0.00 0.12 0.09 48 1003.4
20260505000115 75 208 0.0 5.0 0.00 0.12 0.09 48 1003.7
20260504234555 75 212 0.0 9.0 0.00 0.12 0.09 48 1003.9
20260504233108 75 0 0.0 9.0 0.00 0.12 0.09 47 1004.4
20260504231555 75 221 0.0 13.0 0.00 0.12 0.09 47 1004.6
20260504230057 76 193 1.0 9.0 0.00 0.12 0.09 48 1004.9
20260504224604 76 226 0.0 7.0 0.00 0.12 0.09 47 1005.4
20260504223134 76 0 0.0 4.0 0.00 0.12 0.09 49 1005.7
20260504221556 77 0 1.0 6.0 0.00 0.12 0.09 48 1005.8
20260504220058 77 0 0.0 6.0 0.00 0.12 0.09 47 1006.0
20260504214557 77 0 0.0 13.0 0.00 0.12 0.09 47 1006.0
20260504213104 77 0 0.0 13.0 0.00 0.12 0.09 49 1005.9
20260504211555 77 0 0.0 9.0 0.00 0.12 0.09 50 1005.8
20260504210101 79 275 0.0 8.0 0.00 0.12 0.09 48 1005.9
20260504204557 78 232 3.0 13.0 0.00 0.12 0.09 48 1006.0
20260504203110 78 229 4.0 17.0 0.00 0.12 0.09 47 1006.1
20260504201601 78 207 0.0 16.0 0.00 0.12 0.09 49 1006.1
20260504200120 78 234 7.0 16.0 0.00 0.12 0.09 47 1006.1
20260504194601 78 242 1.0 16.0 0.00 0.12 0.09 48 1006.2
20260504193057 78 0 4.0 15.0 0.00 0.12 0.09 50 1006.5
20260504191600 78 249 8.0 19.0 0.00 0.12 0.09 49 1006.7
20260504190055 77 143 4.0 17.0 0.00 0.12 0.09 54 1006.9
20260504184559 77 0 0.0 7.0 0.00 0.12 0.09 54 1007.2
20260504183057 76 218 1.0 9.0 0.00 0.12 0.09 54 1007.4